Glasgow, MT

12:27 AM MST on December 06, 2016 (GMT -0700)
Wokal-Glasgow International

Weather History for KGGW - July, 2013

Change the Weather History Date:

Wednesday, July 17, 2013

  Actual Average Record
Temperature  
Mean Temperature 66 °F 72 °F  
Max Temperature 73 °F 86 °F 105 °F (1936)
Min Temperature 58 °F 58 °F 40 °F (1912)
Degree Days  
Heating Degree Days 0 0  
Month to date heating degree days 3 15  
Since 1 June heating degree days 87 120  
Since 1 July heating degree days 3 15  
Cooling Degree Days 1 7  
Month to date cooling degree days 114 98  
Year to date cooling degree days 172 190  
Since 1 June cooling degree days 163 173  
Growing Degree Days 16 (Base 50)    
Moisture  
Dew Point 59 °F    
Average Humidity 80    
Maximum Humidity 93    
Minimum Humidity 67    
Precipitation  
Precipitation 0.20 in 0.06 in 0.84 in (1997)
Month to date precipitation 0.73 1.08  
Year to date precipitation 12.19 7.23  
Snow  
Snow 0.00 in 0.00 in 0.00 in (2002)
Month to date snowfall 0.0 0.0  
Since 1 June snowfall 0.0 0.0  
Since 1 July snowfall 0.0 0.0  
Snow Depth 0.00 in    
Sea Level Pressure  
Sea Level Pressure 30.14 in    
Wind  
Wind Speed 11 mph (East)    
Max Wind Speed 17 mph    
Max Gust Speed 22 mph    
Visibility 9 miles    
Events Rain , Thunderstorm    
T = Trace of Precipitation, MM = Missing Value Source: NWS Daily Summary

Daily Weather History Graph

Daily Weather History Graph

Search for Another Location

Airport or City:

Trip Planner

Search our weather history database for the weather conditions in past years. The results will help you decide how hot, cold, wet, or windy it might be!

Date:

Astronomy

Jul. 17, 2013 Rise Set
Actual Time 5:24 AM MDT 9:00 PM MDT
Civil Twilight 4:45 AM MDT 9:39 PM MDT
Nautical Twilight 3:52 AM MDT 10:31 PM MDT
Astronomical Twilight 2:39 AM MDT 11:43 PM MDT
Moon 3:46 PM MDT (7/17) 12:42 AM MDT (7/17)
Length of Visible Light 16h 54m
Length of Day
15h 36m
Waxing Gibbous, 68% of the Moon is Illuminated
Jul 17
Waxing Gibbous
Jul 22
Full
Jul 29
Last Quarter
Aug 6
New
Aug 14
First Quarter

Hourly Weather History & Observations

Time (MDT) Temp. Dew Point Humidity Pressure Visibility Wind Dir Wind Speed Gust Speed Precip Events Conditions
12:53 AM 57.9 °F 53.1 °F 84% 30.23 in 10.0 mi ESE 6.9 mph - N/A   Clear
1:53 AM 57.9 °F 53.1 °F 84% 30.22 in 10.0 mi East 9.2 mph - N/A   Clear
2:53 AM 59.0 °F 53.1 °F 81% 30.21 in 10.0 mi East 6.9 mph - N/A   Clear
3:53 AM 57.9 °F 53.1 °F 84% 30.21 in 10.0 mi ENE 8.1 mph - N/A   Mostly Cloudy
4:53 AM 61.0 °F 53.1 °F 75% 30.20 in 10.0 mi East 10.4 mph - N/A   Overcast
5:53 AM 62.1 °F 52.0 °F 70% 30.20 in 10.0 mi East 10.4 mph - N/A   Overcast
6:53 AM 64.0 °F 55.0 °F 73% 30.19 in 10.0 mi East 8.1 mph - N/A   Overcast
7:53 AM 64.9 °F 55.9 °F 73% 30.18 in 10.0 mi East 13.8 mph - N/A   Mostly Cloudy
8:53 AM 64.0 °F 57.9 °F 80% 30.21 in 10.0 mi ESE 6.9 mph - 0.00 in Rain Light Rain
9:18 AM 62.6 °F 57.2 °F 82% 30.21 in 2.5 mi East 9.2 mph - 0.07 in Rain Rain
9:26 AM 62.6 °F 57.2 °F 82% 30.21 in 4.0 mi East 8.1 mph - 0.09 in Rain Rain
9:34 AM 62.6 °F 57.2 °F 82% 30.21 in 4.0 mi East 10.4 mph - 0.11 in Rain , Thunderstorm Light Rain
9:53 AM 62.1 °F 57.9 °F 86% 30.20 in 10.0 mi East 10.4 mph - 0.11 in   Mostly Cloudy
10:53 AM 61.0 °F 59.0 °F 93% 30.19 in 9.0 mi ENE 8.1 mph - 0.03 in Rain Light Rain
11:36 AM 62.6 °F 59.0 °F 88% 30.20 in 10.0 mi East 4.6 mph - 0.00 in   Overcast
11:53 AM 62.1 °F 59.0 °F 90% 30.20 in 10.0 mi East 9.2 mph - 0.00 in Rain Light Rain
12:13 PM 62.6 °F 59.0 °F 88% 30.18 in 3.0 mi ESE 13.8 mph - 0.05 in Rain Rain
12:53 PM 62.1 °F 60.1 °F 93% 30.17 in 9.0 mi ESE 15.0 mph - 0.07 in Rain Light Rain
1:35 PM 62.6 °F 60.8 °F 94% 30.16 in 10.0 mi ESE 10.4 mph - 0.01 in Rain Light Rain
1:53 PM 63.0 °F 61.0 °F 93% 30.16 in 10.0 mi East 10.4 mph - 0.01 in Rain Light Rain
2:02 PM 64.4 °F 60.8 °F 88% 30.15 in 10.0 mi East 13.8 mph - 0.00 in Rain Light Rain
2:19 PM 64.4 °F 62.6 °F 94% 30.15 in 10.0 mi East 15.0 mph - 0.00 in   Mostly Cloudy
2:41 PM 66.2 °F 60.8 °F 83% 30.15 in 10.0 mi East 12.7 mph - 0.00 in   Mostly Cloudy
2:53 PM 66.0 °F 62.1 °F 87% 30.14 in 10.0 mi East 10.4 mph - 0.00 in   Overcast
3:36 PM 69.8 °F 62.6 °F 78% 30.13 in 10.0 mi East 10.4 mph - N/A   Overcast
3:44 PM 69.8 °F 62.6 °F 78% 30.13 in 10.0 mi East 10.4 mph - N/A   Overcast
3:53 PM 69.1 °F 62.1 °F 78% 30.12 in 10.0 mi East 11.5 mph - N/A   Overcast
4:53 PM 72.0 °F 63.0 °F 73% 30.08 in 10.0 mi ESE 13.8 mph - N/A   Mostly Cloudy
5:53 PM 71.1 °F 63.0 °F 75% 30.05 in 10.0 mi East 15.0 mph - N/A   Overcast
6:36 PM 71.6 °F 62.6 °F 73% 30.05 in 10.0 mi East 13.8 mph - N/A   Partly Cloudy
6:53 PM 71.1 °F 62.1 °F 73% 30.02 in 10.0 mi East 15.0 mph - N/A   Clear
7:37 PM 69.8 °F 60.8 °F 73% 30.03 in 10.0 mi East 11.5 mph - N/A   Mostly Cloudy
7:53 PM 69.1 °F 61.0 °F 75% 30.01 in 10.0 mi East 11.5 mph - N/A   Overcast
8:13 PM 68.0 °F 60.8 °F 78% 30.02 in 10.0 mi East 11.5 mph - N/A   Scattered Clouds
8:53 PM 66.9 °F 61.0 °F 81% 30.01 in 10.0 mi East 9.2 mph - N/A   Clear
9:53 PM 64.9 °F 61.0 °F 87% 30.03 in 10.0 mi East 9.2 mph - N/A   Clear
10:53 PM 64.0 °F 61.0 °F 90% 30.04 in 10.0 mi East 10.4 mph - N/A   Clear
11:53 PM 64.0 °F 60.1 °F 87% 30.01 in 10.0 mi East 12.7 mph - N/A   Clear